Погода в Кирове

Погода в Кирове : погода сейчас, прогноз погоды и архив. Всё, что Вы хотите узнать о погоде в Кирове!

Хотите узнать прогноз погоды в Кирове? Тогда Вам сюда: Погода в Кирове

Поиск расширенной информации на нашем сайте:

Другие новости

Новости СМИ2

Главная страница сайта

Новости сайта

03.07.2017

Напоминаем, что на нашем специализированном сайте Метеоцентр.Азия вы можете получить высокодетализированные автоматические прогнозы погоды по пунктам России, СНГ и мира в авиационном формате (включающие направление и скорость ветра, видимость, явления погоды, количество и форму облачности, нижнюю и верхнюю границу облачности).


Погода в Кирове - сегодня

Время (UTC), дата Ветер
(°,м/с) 
Видим.   Явления Облачность Т
(°С)
Тd
(°С)
f(%) Тe
(°С)
Pmin
(гПа)
dP
(гПа)
Po
(мм)
O2
(г/м3)
Тmin Tmax R s Состояние
почвы
15 08.10.18 300 (СЗ) 3-9{13}  20000 м  в посл. час дождь  10/8 300 м средняя 
[Frnb|As op]
+3.8 +1.8 87 +3  1011.1  9.7  744  295    +10     
03 09.10.18 270 (З) 1-2{06}  20000 м    8/3 300 м средняя, верхняя 
[Sc|Ac lent|Ci fib]
+0.2 -0.4 96 +1  1025  1.7  754  304  +0    0.0    влажная 
15 09.10.18 180 (Ю) 1-2{05}  20000 м    3/1 600 м верхняя 
[Sc|Ci fib]
+0.1 -2.3 84 +1  1026.5  -0.5  755  304    +2.6  0.0     
21 09.10.18 210 (ЮЗ) 2-3{06}  20000 м    ясно 
+0 -1.5 90 -1  1024.1  -1.4  753  304           
00 10.10.18 220 (ЮЗ) 2-6{06}  20000 м    ясно 
+0.2 -1.5 88 -1  1022.7  -1.3  752  303           
03 10.10.18 210 (ЮЗ) 2-4{06}  20000 м    10/3 600 м средняя, верхняя 
[Sc|Ac As|Ci fib]
+0.7 -1.6 85 1020.2  -2.4  750  302  -0.7        замёрзшая 
15 10.10.18 250 (З) 4-9{12}  4000 м  дождь  10/10 300 м 
[Ns]
+6.8 +1.6 69 +5  1004.9  -3.4  739  290    +6.8  0.3     
03 11.10.18 310 (СЗ) 3-9{10}  20000 м  слаб. ливневой дождь  10/10 600 м кучево-дожд. 
[Cb cap]
+4.8 +2.3 84 +4  1010.4  2.8  743  294  +4.5      мокрая 
09 11.10.18 320 (СЗ) 3-7{11}  20000 м  в посл. час ливневой дождь  9/8 600 м кучево-дожд., средняя 
[Cb cap|Ac trans]
+4.9 +0.8 75 +4  1015.5  2.5  747  296           
15 11.10.18 310 (СЗ) 2-4{08}  20000 м    8/8 600 м средняя 
[Sc diur, vesp|Ac trans]
+4.2 -1.6 66 +4  1020.1  2.2  750  298    +5.9  0.1     
00 12.10.18 320 (СЗ) 1-3{04}  20000 м    ясно 
-0.3 -2.4 86 1024.3  0.7  753  304           
03 12.10.18 280 (З) 2-5{05}  20000 м    ясно 
-1.8 -2.7 94 -3  1024  -0.4  753  306  -1.9        замёрзшая 
15 12.10.18 280 (З) 2-3{06}  20000 м    3/3 600 м 
[Sc]
+2.3 -1.7 75 +2  1022  -0.1  752  301    +5.6       
18 12.10.18 300 (СЗ) 1-3{04}  20000 м    ясно 
+0.8 -1.8 83 +1  1021.8  -0.3  751  302           
21 12.10.18 280 (З) 1-2{03}  20000 м    ясно 
-0.7 -1.6 94 1021.6  -0.3  751  304           
03 13.10.18 320 (СЗ) 1-3{04}  2000 м  дымка  ясно 
+0.1 -0.2 98 +1  1021.4  0.4  751  303  -3.5        замёрзшая 
15 13.10.18 тихо () -0{08}  20000 м    8/4 300 м кучево-дожд., средняя 
[Cb calv|Ac As]
+0.5 -4.2 71 +1  1022.9  0.5  752  303    +4.6  0.0     
03 14.10.18 290 (З) 1-2{03}  20000 м    ясно 
-3.1 -4.1 93 -3  1023.5  752  307  -4.8        замёрзшая 
15 14.10.18 тихо () -0{03}  20000 м    10/0 средняя 
[As op]
+0.8 -1.5 85 +1  1022.9  -0.3  752  302    +2.4       
03 15.10.18 180 (Ю) 2-4{04}  4000 м  слаб. морось  10/10 200 м 
[St]
+1.4 +1.1 98 +1  1020.2  -1.2  750  301  +0.2    0.0    влажная 
15 15.10.18 230 (ЮЗ) 2-3{04}  1000 м  слаб. морось{дождь}  10/10 100 м 
[St]
+5 +5 100 +5  1018.4  -0.5  749  296    +5  0.7     
03 16.10.18 260 (З) 2-3{05}  1000 м  дымка  10/10 100 м 
[St]
+6.5 +6.5 100 +6  1016.6  0.4  748  293  +5    0.1    мокрая 
15 16.10.18 250 (З) 1-2{03}  20000 м    10/0 средняя, верхняя 
[As trans|Cs]
+9.6 +8.4 92 +11  1015.3  -1.1  747  289    +12.5       
00 17.10.18 270 (З) 3-6{08}  20000 м    ясно 
+8.4 +5.8 84 +8  1009.9  -0.5  743  290           
03 17.10.18 280 (З) 3-7{08}  20000 м    10/8 600 м средняя 
[Sc|Ac und]
+8.4 +5.8 84 +8  1010.1  0.2  743  290  +7.9        влажная 
Время (UTC), дата Ветер
(°,м/с) 
Видим.   Явления Облачность Т
(°С)
Тd
(°С)
f(%) Тe
(°С)
Pmin
(гПа)
dP
(гПа)
Po
(мм)
O2
(г/м3)
Тmin Tmax R s Состояние
почвы

Для получения пояснительной информации подведите курсор к названию столбца.

ПОГОДА в Кирове - архив

Всё, что Вы хотите узнать о погоде в Кирове - удобно и подробно!

Выберите нужную дату (начиная с 1 января 2015* года) и нажмите кнопку "Найти".
Будут отображены архивные сводки погоды по пункту Киров, начиная с указанной даты.


Отображать данные в формате CSV (для использования в таблицах Excel)


Внимание! Наш архив погоды предназначен исключительно для личного некоммерческого использования в познавательных целях. Если Вам необходимы официальные справки о состоянии погоды (для производственных, юридических, коммерческих и т.п. целей), обращайтесь в органы Росгидромета.

*Примечание: данная дата относится к архиву по метеостанциям СССР (Россия, СНГ, Балтия).
Архив по метеостанциям Зарубежной Европы и Азии (кроме Китая) хранится 10 дней, по другим регионам земного шара (Китай, Африка, Америка, Австралия, Океания) - 1 день.

Киров - район местоположения метеостанции


Название, широта, долгота, высота метеостанции:
Киров 58.6°ш. 49.6°д. 158 м над ур. моря [Российская Федерация]

Дополнительная информация

В oтличие oт бoльшинства пoгoдных сайтoв мы публикуем пoдрoбную метеoинфoрмацию в детальнoм прoфессиoнальнoм фoрмате.

Характеристики температуры и влажнoсти вoздуха измеряются на высoте 2 м в тени вдали oт зданий и деревьев.
Скoрoсть ветра измеряется на высoте 10 м (на урoвне рoста челoвека скoрoсть ветра ниже в 1.5-2 раза). Если метеoстанция нахoдится в гoрoде или в лесу, тo скoрoсть ветра занижена на 2-4 м/с пo сравнению с oткрытым местoм. Скoрoсть ветра над акватoриями крупных рек и oзёр, а также на вершинах хoлмoв на 2-5 м/с выше, чем в oбычных услoвиях.
Атмoсфернoе давление в разных тoчках местнoсти мoжет значительнo oтличаться oт давления на метеoстанции, в зависимoсти oт услoвий рельефа (при пoдъёме на 10 м давление пoнижается примернo на 1 мм рт.ст.).